Theta_e
294 294 295 296 295 296 295 294 294 294 293 293 292 293 292 292 290 290 291 290 291 290 290 290 290 290 290 290 291 291 291 290 289 290 290 290 290 290 290 290 291 289
294 293 293 293 293 293 295 295 293 293 293 293 293 293 292 290 290 290 289 289 289 290 289 290 290 289 289 290 290 290 289 289 287 288 289 289 288 289 289 289 289 288
293 292 292 292 291 291 291 292 292 293 293 293 292 292 290 290 289 289 289 289 289 289 289 289 289 289 289 290 290 289 289 288 287 287 288 288 288 288 287 287 288 288
293 292 292 292 291 291 291 290 290 291 291 291 290 290 290 289 289 288 288 288 289 288 288 289 289 288 289 289 289 288 288 287 287 287 286 286 286 286 286 286 286 286
294 292 291 290 290 290 289 288 288 289 290 289 289 289 288 288 288 288 288 288 288 288 288 288 288 288 288 288 288 287 286 285 286 286 286 285 285 285 285 285 284 284
293 292 291 290 289 288 287 287 288 289 289 288 288 287 288 288 288 287 287 287 288 287 287 287 287 286 287 286 286 285 285 284 284 284 284 283 283 284 283 284 284 283
292 291 290 289 288 288 287 288 288 288 288 287 287 287 288 288 287 287 287 287 287 287 286 286 286 285 285 284 284 284 284 284 283 283 283 283 283 282 282 283 282 281
291 290 290 289 287 287 287 287 287 287 287 286 286 287 287 287 287 287 287 287 287 286 285 285 285 284 284 284 284 283 282 282 282 283 283 283 283 282 281 281 280 279
290 289 289 289 288 287 286 286 286 285 286 285 286 286 287 287 287 286 286 286 286 285 285 284 284 283 283 283 283 283 282 282 283 283 283 282 281 280 279 279 279 279
290 288 287 286 286 286 285 285 284 284 285 285 285 286 286 286 286 286 286 285 284 284 283 283 282 282 282 282 282 282 282 282 282 282 282 281 280 279 278 278 279 279
290 288 286 285 285 285 285 284 284 284 284 284 285 285 285 285 285 285 284 284 283 283 283 282 282 282 282 281 282 282 282 281 281 281 280 280 280 279 279 278 279 280
289 288 287 285 284 284 284 284 284 283 283 284 285 285 285 284 284 284 284 284 283 283 283 283 283 282 281 281 281 281 280 280 280 280 280 279 279 278 278 279 279 280
289 288 287 286 285 285 284 283 283 283 283 283 284 285 284 283 283 283 283 284 284 283 283 283 282 281 280 280 280 280 280 280 280 280 279 279 278 278 279 279 280 280
288 288 287 286 285 285 284 284 283 283 283 284 284 284 283 283 282 282 283 284 283 283 283 282 281 279 279 279 279 280 280 280 280 279 279 278 277 278 279 279 279 280
288 287 286 285 285 284 283 283 283 283 283 283 284 284 284 283 283 283 282 282 282 282 281 281 280 279 279 279 279 279 280 279 279 278 278 277 277 278 278 279 279 279
288 287 286 286 285 284 283 283 283 283 283 283 283 284 284 283 282 282 282 282 281 281 280 279 279 279 280 282 281 280 279 279 279 278 278 278 278 277 277 278 278 279
288 287 286 285 285 284 284 283 283 283 283 283 283 283 283 282 282 281 281 281 280 280 279 279 279 279 282 283 283 282 279 279 279 279 279 278 278 278 277 278 278 279
287 286 285 285 284 284 283 283 283 282 282 282 283 282 282 282 281 281 281 280 280 279 279 279 278 281 283 284 284 283 281 279 280 279 279 278 278 278 278 279 279 279
287 286 285 284 284 284 283 283 283 282 282 282 282 282 282 281 281 280 280 280 279 279 278 278 278 282 283 284 284 284 283 281 280 280 279 279 279 278 278 279 280 279
287 286 285 285 284 284 284 283 282 282 282 282 282 282 281 281 280 280 280 279 279 279 279 278 278 281 284 285 285 285 284 282 280 280 280 280 279 279 279 280 280 279
286 286 285 285 284 284 284 283 282 282 282 282 282 281 280 280 280 279 279 280 279 279 279 278 278 282 284 285 285 286 285 283 280 280 280 280 279 279 279 280 280 279
287 286 285 285 284 284 283 283 282 282 282 282 282 281 281 281 280 281 280 279 279 279 279 279 279 282 284 285 286 286 286 283 280 279 279 280 279 280 280 280 280 279
287 286 285 284 284 283 283 283 282 282 282 282 282 282 281 280 281 280 280 279 279 279 279 280 279 281 284 285 286 286 286 284 281 279 279 279 279 280 280 280 280 279
287 286 285 284 284 283 283 283 283 283 282 283 282 281 281 281 281 280 280 280 279 279 279 279 278 280 284 285 286 287 285 284 283 281 280 279 279 280 280 280 280 280
287 286 286 285 284 284 284 283 283 283 283 282 282 283 281 281 280 280 280 280 279 279 280 279 278 279 284 285 286 286 286 285 284 283 281 281 280 280 281 280 280 280
286 285 285 285 284 284 284 284 284 283 283 282 282 282 281 281 280 279 279 279 279 278 278 279 278 278 281 285 286 286 286 285 284 283 283 282 282 282 282 282 281 280
Wind_Speed
6 7 8 7 6 6 6 7 8 9 9 8 9 9 9 7 8 7 6 6 6 6 7 7 7 6 6 6 5 6 5 6 5 4 5 4 4 4 3 3 4 4
9 8 5 4 4 4 7 8 5 7 9 9 7 8 7 8 7 6 7 7 6 6 7 7 7 7 7 6 6 6 6 6 6 3 5 6 4 4 5 5 5 4
9 9 8 9 8 8 8 6 5 5 5 6 7 7 7 8 8 7 7 7 7 7 7 6 7 6 6 7 6 6 6 7 7 5 6 5 4 5 4 3 3 3
10 11 10 9 8 9 7 7 5 4 3 5 6 6 7 7 8 8 7 8 7 7 7 7 7 6 6 7 7 7 7 6 6 6 6 5 4 4 4 3 3 3
12 10 8 7 7 6 8 7 8 8 8 7 6 7 8 9 9 9 8 7 8 8 7 7 6 6 6 6 6 7 6 6 6 6 6 6 4 4 3 4 4 4
9 9 9 8 9 10 8 7 7 8 8 8 8 7 8 10 10 10 9 9 8 8 8 7 7 6 6 6 6 6 6 6 6 7 7 6 5 4 3 4 5 5
11 10 8 8 7 8 8 9 8 8 8 7 8 8 9 10 10 10 10 9 10 9 9 8 8 7 6 6 6 7 6 7 7 7 8 6 6 6 4 4 4 4
10 8 10 10 9 9 9 8 8 8 7 8 8 8 9 10 11 9 9 10 10 9 9 9 8 8 7 6 7 7 7 5 7 7 8 7 7 6 5 3 4 5
9 9 9 11 11 10 10 8 8 7 7 9 9 9 8 9 10 10 11 10 9 9 9 8 8 8 6 7 6 7 8 7 6 8 8 8 7 6 6 5 4 4
10 8 10 9 10 8 10 9 8 8 8 8 8 9 10 8 8 9 10 10 10 10 9 9 9 7 7 6 7 7 8 8 7 7 6 6 6 6 6 5 5 5
13 12 12 10 9 9 11 10 10 9 8 9 9 9 9 9 8 8 9 9 9 10 9 9 9 9 8 7 6 6 6 7 7 6 6 6 5 6 5 6 6 6
13 13 14 12 10 9 9 9 9 9 10 8 10 11 10 9 10 9 9 9 9 10 10 10 9 9 8 8 7 6 5 5 5 5 5 6 6 5 6 5 5 5
13 13 12 12 12 12 9 9 9 9 9 10 10 11 11 11 9 9 8 9 10 10 10 10 10 8 7 7 7 7 7 7 6 6 6 5 5 5 6 6 5 6
12 12 11 10 9 10 11 11 9 8 9 9 10 11 11 10 11 11 10 9 9 9 10 9 8 7 7 8 7 7 7 7 7 7 7 5 5 5 5 6 6 6
12 11 9 8 9 10 10 10 10 8 7 8 10 10 8 10 9 9 10 9 9 9 9 7 8 8 7 8 8 8 7 8 7 6 6 6 6 5 5 5 5 5
11 10 11 11 12 11 10 10 10 9 8 8 10 10 10 8 8 8 9 10 11 9 8 7 6 5 10 12 9 8 8 6 5 6 7 6 6 6 5 5 6 6
10 10 11 12 11 10 9 11 10 9 6 6 8 9 9 9 9 10 10 9 9 10 10 8 7 8 16 16 16 13 8 7 7 6 6 6 6 6 7 7 6 6
10 10 10 10 10 10 11 11 10 11 11 11 7 7 8 7 10 9 7 7 7 8 8 8 7 11 17 17 17 17 13 8 6 5 6 7 6 6 5 6 6 7
11 11 11 10 10 12 11 11 11 11 12 11 13 8 7 8 9 10 10 5 7 10 9 7 8 14 18 19 18 18 18 11 5 6 6 6 7 6 7 7 6 6
11 11 10 9 11 12 11 11 12 12 10 9 7 6 8 8 9 11 10 12 12 11 8 7 10 15 20 19 19 19 19 13 5 6 6 6 8 7 7 8 8 7
11 11 9 9 12 11 11 11 11 10 11 10 7 10 12 12 12 12 11 10 9 10 11 12 10 16 19 20 19 20 19 14 5 6 5 5 6 7 7 8 8 8
13 11 8 9 11 10 10 10 9 9 10 8 7 5 5 6 6 8 10 12 12 11 9 8 7 17 19 21 21 20 20 9 6 6 6 6 6 8 8 7 8 9
12 11 10 11 11 12 12 11 11 11 10 7 7 7 9 10 10 10 10 10 10 10 10 6 7 15 21 20 19 20 15 7 7 6 6 6 7 8 7 8 8 9
12 12 13 12 13 14 15 14 14 12 12 11 13 12 11 11 10 8 7 8 9 10 10 10 8 12 19 19 19 20 14 9 7 7 7 7 7 8 7 7 9 10
11 11 11 11 12 13 13 13 13 12 11 11 10 6 10 6 7 5 5 4 7 8 7 7 6 8 16 18 19 20 15 6 7 6 7 8 8 8 8 8 7 8
10 11 12 13 14 12 10 10 8 6 7 7 8 6 5 5 7 7 8 6 6 7 7 7 7 7 11 18 18 19 18 9 6 7 9 9 9 8 7 6 7 6
Wind_Direction
165 181 190 192 191 190 179 170 176 174 176 170 167 166 165 151 142 157 149 141 138 132 132 132 133 131 131 138 138 130 123 112 107 103 106 102 98 98 99 91 65 76
180 178 169 151 162 176 194 197 199 184 173 167 161 148 139 132 143 147 144 138 132 131 130 132 135 137 142 141 139 128 118 110 98 71 100 88 96 86 74 63 71 76
176 176 173 180 182 183 191 186 187 204 176 157 133 134 133 136 139 144 142 142 137 132 133 132 134 141 138 133 129 117 114 114 110 106 101 92 80 84 82 81 87 83
181 180 179 182 187 184 176 175 178 182 143 147 154 134 132 137 138 144 141 144 137 136 133 136 139 135 130 129 122 109 112 105 107 109 99 88 85 99 111 112 119 122
183 179 179 180 181 162 179 178 176 178 169 155 129 136 140 146 144 147 149 147 140 138 139 139 136 131 131 127 120 115 112 110 113 115 119 122 120 125 130 145 155 148
185 182 179 170 178 182 182 181 177 172 163 150 153 150 154 150 150 154 154 148 145 141 142 139 135 132 129 122 118 119 123 125 133 132 129 134 139 146 148 166 163 156
182 177 172 174 166 175 179 182 176 175 169 154 145 162 156 156 153 153 153 148 144 146 147 146 140 137 134 130 123 128 127 129 139 142 142 142 147 153 159 163 160 141
185 173 175 176 175 171 180 177 172 174 154 144 159 156 162 158 154 152 152 149 147 148 146 143 140 138 139 140 138 137 136 135 148 150 148 146 154 159 163 164 156 154
176 179 173 178 179 178 180 168 166 164 154 160 162 157 165 163 159 155 154 151 147 147 145 143 146 141 143 142 143 147 150 155 156 157 156 155 162 166 164 154 159 165
181 174 174 175 179 179 176 165 160 160 159 163 160 160 164 162 156 155 151 153 150 151 150 146 144 142 144 146 149 157 158 159 159 158 158 159 159 152 152 161 173 168
186 178 181 181 177 171 178 165 162 160 164 167 159 165 167 156 154 157 155 156 158 156 151 150 151 149 148 149 156 162 162 156 158 160 160 157 148 155 156 165 175 191
185 180 184 182 174 170 166 164 165 163 164 165 165 166 163 163 161 162 165 165 161 158 155 153 150 152 152 156 156 156 151 146 149 147 143 151 159 159 165 174 181 194
186 185 180 178 179 180 168 165 168 167 165 164 167 167 164 165 168 166 169 165 162 157 158 156 151 147 147 148 151 158 162 163 159 159 166 165 159 159 170 181 194 200
184 184 182 176 171 169 172 171 163 162 166 162 166 169 170 168 167 170 168 165 161 160 160 156 148 143 147 155 160 163 161 162 161 166 171 158 154 170 175 190 197 203
176 177 173 161 160 167 169 169 167 165 158 160 168 172 169 170 169 165 158 160 160 163 155 149 152 162 160 161 161 164 164 164 168 164 155 159 166 171 186 191 197 206
174 162 168 169 174 176 171 168 173 170 163 161 172 174 167 160 156 160 163 163 162 161 156 157 166 148 172 162 160 157 165 158 153 164 170 165 164 173 188 199 205 206
174 171 165 169 174 170 170 175 173 171 165 151 169 171 161 160 162 164 172 171 165 161 163 171 169 170 174 176 176 165 152 158 166 173 170 172 175 182 188 197 205 212
175 166 167 168 160 173 180 184 181 181 183 181 167 150 165 160 174 174 162 159 162 164 167 169 161 171 175 178 177 178 177 173 169 162 169 180 186 190 189 189 202 206
173 171 170 168 171 176 180 180 179 182 183 180 185 169 154 165 175 172 181 157 160 171 175 168 158 176 179 180 182 182 183 175 167 166 169 186 190 191 194 200 200 205
169 174 177 171 172 177 177 181 181 184 180 179 168 154 166 165 173 181 180 182 184 184 175 171 179 184 183 182 183 185 184 177 162 168 184 188 194 193 197 206 207 204
170 169 174 171 177 175 176 179 180 177 175 176 165 173 176 180 180 181 184 181 183 184 185 188 193 184 185 184 185 185 182 176 165 174 185 200 205 204 205 206 211 211
171 169 169 170 172 170 169 172 173 174 173 174 172 172 180 179 186 184 179 185 189 187 184 185 180 187 188 188 187 182 178 173 164 179 193 203 208 216 215 216 219 221
169 168 167 172 170 167 169 168 170 176 182 169 163 169 174 183 188 192 191 186 182 185 190 183 180 189 191 187 181 179 177 174 168 185 200 207 222 219 217 215 220 223
168 172 175 175 172 174 176 179 181 182 179 177 180 180 184 187 186 183 183 183 182 187 193 191 189 189 187 184 183 182 178 178 178 187 202 211 227 227 221 225 224 211
170 175 172 172 178 179 179 180 180 181 181 179 186 166 180 148 160 148 158 160 181 185 174 181 176 189 193 190 187 186 184 182 183 193 206 218 223 229 221 226 228 210
169 171 175 178 180 179 180 179 166 148 152 157 171 166 148 137 161 166 169 174 170 173 182 185 180 188 200 199 196 195 191 184 190 197 212 215 220 227 226 219 217 221